ROMMA est une association bénévole à but non lucratif. Votre soutien est indispensable : ADHERER à ROMMA ou FAIRE un DON

Taninges - (74, Haute-Savoie)

Vallée du Giffre (635 m)   Longitude: 06° 35' 38" E   Latitude: 46° 06' 21" N Station romma n°98
 

Détail journalier du     <<     >>

Température Precipitation Humidité Pression Vent Dir Rafale Dir. rafale Ensol.
Heure (°C) (mm) (%) (hPa) (km/h) (km/h) (min)
01:00 11.209610183O13SO0
02:00 10.909710182OSO11SO0
03:00 10.609710183OSO10OSO0
04:00 10.409710182O8ONO0
05:00 10.209710183OSO8O0
06:00 10.10.29710192OSO8SSO0
07:00 10.3097101906O0
08:00 9.909710193O8SO0
09:00 10.40.297102005O0
10:00 11.309710201OSO5OSO5
11:00 12.609610192SSO6SO40
12:00 12.409410187OSO18O55
13:00 11.9094101811OSO21O60
14:00 12.109410188OSO21OSO10
15:00 11.909410187OSO16O0
16:00 11.609410186OSO15OSO0
17:00 11.309510195OSO13OSO0
18:00 11.409510181OSO8O0
19:00 11.6095101903OSO0
20:00 11.109610193OSO11OSO0
21:00 11.2096101905ONO0
22:00 11.10961018000
23:00 10.60951018000
minuit 10.50961018000

Graphique du 30-10-2019

 

Serveur OMMA